Time,TemperatureF,DewpointF,PressureIn,WindDirection,WindDirectionDegrees,WindSpeedMPH,WindSpeedGustMPH,Humidity,HourlyPrecipIn,Conditions,Clouds,dailyrainin,SolarRadiationWatts/m^2,SoftwareType,DateUTC
2013-05-19 00:01:00,56.7,44.2,30.01,South,184,0.0,4.0,63,0.00,,,0.00,0.0,meteohub,2013-05-19 04:01:00,
2013-05-19 00:06:00,56.5,44.1,30.01,SE,142,1.0,4.0,63,0.00,,,0.00,0.0,meteohub,2013-05-19 04:06:00,
2013-05-19 00:11:00,56.5,44.4,30.01,South,178,0.0,4.0,64,0.00,,,0.00,0.0,meteohub,2013-05-19 04:11:00,
2013-05-19 00:16:00,56.5,44.4,30.01,SSE,157,2.0,4.0,64,0.00,,,0.00,0.0,meteohub,2013-05-19 04:16:00,
2013-05-19 00:21:00,56.5,44.4,30.01,SE,140,1.0,4.0,64,0.00,,,0.00,0.0,meteohub,2013-05-19 04:21:00,
2013-05-19 00:26:00,56.5,44.8,30.01,SSE,161,0.0,3.0,65,0.00,,,0.00,0.0,meteohub,2013-05-19 04:26:00,
2013-05-19 00:31:00,56.3,44.6,30.01,SSE,155,1.0,4.0,65,0.00,,,0.00,0.0,meteohub,2013-05-19 04:31:00,
2013-05-19 00:36:00,56.3,44.6,30.01,SE,141,0.0,4.0,65,0.00,,,0.00,0.0,meteohub,2013-05-19 04:36:00,
2013-05-19 00:41:00,56.1,44.6,30.00,SSE,159,0.0,2.0,65,0.00,,,0.00,0.0,meteohub,2013-05-19 04:41:00,
2013-05-19 00:46:00,55.9,44.4,30.00,SSE,165,1.0,3.0,65,0.00,,,0.00,0.0,meteohub,2013-05-19 04:46:00,
2013-05-19 00:51:00,55.9,44.8,30.00,SSE,163,3.0,4.0,66,0.00,,,0.00,0.0,meteohub,2013-05-19 04:51:00,
2013-05-19 00:56:00,55.9,44.8,30.00,South,170,1.0,4.0,66,0.00,,,0.00,0.0,meteohub,2013-05-19 04:56:00,
2013-05-19 01:01:00,55.9,44.8,30.00,SSE,163,0.0,4.0,66,0.00,,,0.00,0.0,meteohub,2013-05-19 05:01:00,
2013-05-19 01:06:00,55.9,44.8,30.00,SSE,163,1.0,3.0,66,0.00,,,0.00,0.0,meteohub,2013-05-19 05:06:00,
2013-05-19 01:11:00,55.8,44.6,30.00,SSE,163,0.0,3.0,66,0.00,,,0.00,0.0,meteohub,2013-05-19 05:11:00,
2013-05-19 01:16:00,55.8,45.0,30.00,SSE,163,1.0,3.0,67,0.00,,,0.00,0.0,meteohub,2013-05-19 05:16:00,
2013-05-19 01:21:00,55.8,45.0,30.00,SSE,167,0.0,2.0,67,0.00,,,0.00,0.0,meteohub,2013-05-19 05:21:00,
2013-05-19 01:26:00,55.8,44.6,30.00,SSE,167,0.0,2.0,66,0.00,,,0.00,0.0,meteohub,2013-05-19 05:26:00,
2013-05-19 01:31:00,55.8,44.6,29.99,SSE,167,1.0,2.0,66,0.00,,,0.00,0.0,meteohub,2013-05-19 05:31:00,
2013-05-19 01:36:00,55.8,45.3,29.99,SSE,167,0.0,1.0,68,0.00,,,0.00,0.0,meteohub,2013-05-19 05:36:00,
2013-05-19 01:41:00,55.6,44.8,29.99,SSE,167,0.0,1.0,67,0.00,,,0.00,0.0,meteohub,2013-05-19 05:41:00,
2013-05-19 01:46:00,55.6,44.8,29.99,SSE,167,0.0,1.0,67,0.00,,,0.00,0.0,meteohub,2013-05-19 05:46:00,
2013-05-19 01:52:00,55.6,45.5,29.99,SSE,167,0.0,1.0,69,0.00,,,0.00,0.0,meteohub,2013-05-19 05:52:00,
2013-05-19 01:57:00,55.2,45.7,29.99,SSE,167,1.0,1.0,70,0.00,,,0.00,0.0,meteohub,2013-05-19 05:57:00,
2013-05-19 02:02:00,55.2,45.1,29.99,SE,130,1.0,2.0,69,0.00,,,0.00,0.0,meteohub,2013-05-19 06:02:00,
2013-05-19 02:07:00,55.2,45.1,29.99,SE,130,1.0,2.0,69,0.00,,,0.00,0.0,meteohub,2013-05-19 06:07:00,
2013-05-19 02:12:00,55.2,45.1,29.99,SE,126,2.0,2.0,69,0.00,,,0.00,0.0,meteohub,2013-05-19 06:12:00,
2013-05-19 02:17:00,55.2,45.1,29.98,SE,124,1.0,2.0,69,0.00,,,0.00,0.0,meteohub,2013-05-19 06:17:00,
2013-05-19 02:22:00,55.2,45.1,29.98,ESE,121,1.0,2.0,69,0.00,,,0.00,0.0,meteohub,2013-05-19 06:22:00,
2013-05-19 02:27:00,55.2,45.7,29.98,ESE,119,1.0,2.0,70,0.00,,,0.00,0.0,meteohub,2013-05-19 06:27:00,
2013-05-19 02:32:00,55.2,45.1,29.98,ESE,102,1.0,3.0,69,0.00,,,0.00,0.0,meteohub,2013-05-19 06:32:00,
2013-05-19 02:37:00,55.2,45.1,29.98,ENE,61,1.0,3.0,69,0.00,,,0.00,0.0,meteohub,2013-05-19 06:37:00,
2013-05-19 02:42:00,55.2,45.1,29.97,East,100,1.0,3.0,69,0.00,,,0.00,0.0,meteohub,2013-05-19 06:42:00,
2013-05-19 02:47:00,55.2,45.1,29.97,ESE,121,0.0,3.0,69,0.00,,,0.00,0.0,meteohub,2013-05-19 06:47:00,
2013-05-19 02:52:00,55.2,45.1,29.97,SSE,168,0.0,3.0,69,0.00,,,0.00,0.0,meteohub,2013-05-19 06:52:00,
2013-05-19 02:57:00,55.2,45.1,29.97,South,174,1.0,2.0,69,0.00,,,0.00,0.0,meteohub,2013-05-19 06:57:00,
2013-05-19 03:02:00,55.2,45.1,29.97,SSW,200,0.0,2.0,69,0.00,,,0.00,0.0,meteohub,2013-05-19 07:02:00,
2013-05-19 03:07:00,55.4,45.3,29.97,SSE,166,0.0,2.0,69,0.00,,,0.00,0.0,meteohub,2013-05-19 07:07:00,
2013-05-19 03:12:00,55.4,45.3,29.97,SE,146,0.0,3.0,69,0.00,,,0.00,0.0,meteohub,2013-05-19 07:12:00,
2013-05-19 03:17:00,55.4,45.3,29.96,SSE,153,0.0,3.0,69,0.00,,,0.00,0.0,meteohub,2013-05-19 07:17:00,
2013-05-19 03:22:00,55.4,45.3,29.96,SSE,155,0.0,3.0,69,0.00,,,0.00,0.0,meteohub,2013-05-19 07:22:00,
2013-05-19 03:27:00,55.4,45.3,29.96,South,173,0.0,2.0,69,0.00,,,0.00,0.0,meteohub,2013-05-19 07:27:00,
2013-05-19 03:32:00,55.2,45.1,29.96,SE,134,0.0,3.0,69,0.00,,,0.00,0.0,meteohub,2013-05-19 07:32:00,
2013-05-19 03:37:00,55.4,45.3,29.96,SSW,194,0.0,3.0,69,0.00,,,0.00,0.0,meteohub,2013-05-19 07:37:00,
2013-05-19 03:42:00,55.4,45.3,29.96,South,173,2.0,3.0,69,0.00,,,0.00,0.0,meteohub,2013-05-19 07:42:00,
2013-05-19 03:47:00,55.2,45.7,29.96,SE,140,0.0,3.0,70,0.00,,,0.00,0.0,meteohub,2013-05-19 07:47:00,
2013-05-19 03:52:00,55.2,45.7,29.96,SSE,168,1.0,3.0,70,0.00,,,0.00,0.0,meteohub,2013-05-19 07:52:00,
2013-05-19 03:57:00,55.2,45.7,29.96,SE,145,0.0,3.0,70,0.00,,,0.00,0.0,meteohub,2013-05-19 07:57:00,
2013-05-19 04:02:00,55.2,45.7,29.96,South,169,2.0,3.0,70,0.00,,,0.00,0.0,meteohub,2013-05-19 08:02:00,
2013-05-19 04:07:00,55.4,45.9,29.96,South,186,2.0,3.0,70,0.00,,,0.00,0.0,meteohub,2013-05-19 08:07:00,
2013-05-19 04:12:00,55.4,45.9,29.96,South,187,1.0,4.0,70,0.00,,,0.00,0.0,meteohub,2013-05-19 08:12:00,
2013-05-19 04:17:00,55.4,45.9,29.96,South,182,1.0,4.0,70,0.00,,,0.00,0.0,meteohub,2013-05-19 08:17:00,
2013-05-19 04:22:00,55.4,45.9,29.96,South,190,2.0,3.0,70,0.00,,,0.00,0.0,meteohub,2013-05-19 08:22:00,
2013-05-19 04:27:00,55.4,45.3,29.96,South,179,1.0,4.0,69,0.00,,,0.00,0.0,meteohub,2013-05-19 08:27:00,
2013-05-19 04:32:00,55.6,46.0,29.96,SSW,192,2.0,4.0,70,0.00,,,0.00,0.0,meteohub,2013-05-19 08:32:00,
2013-05-19 04:37:00,55.4,45.3,29.96,South,170,0.0,4.0,69,0.00,,,0.00,0.0,meteohub,2013-05-19 08:37:00,
2013-05-19 04:42:00,55.4,45.3,29.96,South,172,1.0,4.0,69,0.00,,,0.00,0.0,meteohub,2013-05-19 08:42:00,
2013-05-19 04:47:00,55.4,46.2,29.96,South,187,2.0,3.0,71,0.00,,,0.00,0.0,meteohub,2013-05-19 08:47:00,
2013-05-19 04:52:00,55.2,46.0,29.96,South,178,3.0,3.0,71,0.00,,,0.00,0.0,meteohub,2013-05-19 08:52:00,
2013-05-19 04:57:00,55.2,45.7,29.96,SSW,207,1.0,4.0,70,0.00,,,0.00,0.0,meteohub,2013-05-19 08:57:00,
2013-05-19 05:02:00,55.2,45.1,29.96,SSW,205,1.0,4.0,69,0.00,,,0.00,0.0,meteohub,2013-05-19 09:02:00,
2013-05-19 05:07:00,55.4,45.9,29.96,SSW,200,0.0,4.0,70,0.00,,,0.00,0.0,meteohub,2013-05-19 09:07:00,
2013-05-19 05:12:00,55.2,46.0,29.96,SSW,200,0.0,3.0,71,0.00,,,0.00,0.0,meteohub,2013-05-19 09:12:00,
2013-05-19 05:17:00,55.2,46.0,29.96,SSW,200,0.0,2.0,71,0.00,,,0.00,0.0,meteohub,2013-05-19 09:17:00,
2013-05-19 05:22:00,55.2,46.0,29.96,SSW,200,0.0,1.0,71,0.00,,,0.00,0.0,meteohub,2013-05-19 09:22:00,
2013-05-19 05:27:00,55.0,46.2,29.96,SSW,200,0.0,2.0,72,0.00,,,0.00,0.0,meteohub,2013-05-19 09:27:00,
2013-05-19 05:32:00,54.9,46.0,29.96,SSW,200,0.0,2.0,72,0.00,,,0.00,0.0,meteohub,2013-05-19 09:32:00,
2013-05-19 05:37:00,54.9,46.0,29.96,SSW,200,0.0,2.0,72,0.00,,,0.00,0.0,meteohub,2013-05-19 09:37:00,
2013-05-19 05:42:00,54.9,46.4,29.96,SSW,200,0.0,1.0,73,0.00,,,0.00,0.0,meteohub,2013-05-19 09:42:00,
2013-05-19 05:47:00,54.9,46.8,29.96,South,178,2.0,2.0,74,0.00,,,0.00,0.0,meteohub,2013-05-19 09:47:00,
2013-05-19 05:52:00,54.9,46.8,29.96,SSW,194,1.0,3.0,74,0.00,,,0.00,0.0,meteohub,2013-05-19 09:52:00,
2013-05-19 05:57:00,54.9,46.4,29.96,South,184,1.0,3.0,73,0.00,,,0.00,0.0,meteohub,2013-05-19 09:57:00,
2013-05-19 06:02:00,55.0,46.6,29.96,South,186,1.0,3.0,73,0.00,,,0.00,0.0,meteohub,2013-05-19 10:02:00,
2013-05-19 06:07:00,55.0,45.9,29.96,South,191,1.0,3.0,71,0.00,,,0.00,0.0,meteohub,2013-05-19 10:07:00,
2013-05-19 06:12:00,55.2,46.0,29.96,South,188,1.0,3.0,71,0.00,,,0.00,0.0,meteohub,2013-05-19 10:12:00,
2013-05-19 06:17:00,55.4,46.2,29.96,South,188,1.0,3.0,71,0.00,,,0.00,5.0,meteohub,2013-05-19 10:17:00,
2013-05-19 06:23:00,55.6,46.4,29.96,SSW,207,1.0,3.0,71,0.00,,,0.00,7.0,meteohub,2013-05-19 10:23:00,
2013-05-19 06:28:00,55.6,46.4,29.96,SSW,209,4.0,4.0,71,0.00,,,0.00,9.0,meteohub,2013-05-19 10:28:00,
2013-05-19 06:33:00,55.6,46.4,29.96,SSW,205,1.0,5.0,71,0.00,,,0.00,11.0,meteohub,2013-05-19 10:33:00,
2013-05-19 06:38:00,55.8,46.6,29.96,South,171,2.0,5.0,71,0.00,,,0.00,12.0,meteohub,2013-05-19 10:38:00,
2013-05-19 06:43:00,55.8,46.6,29.96,South,182,1.0,5.0,71,0.00,,,0.00,14.0,meteohub,2013-05-19 10:43:00,
2013-05-19 06:48:00,55.8,46.6,29.96,SSE,158,0.0,3.0,71,0.00,,,0.00,16.0,meteohub,2013-05-19 10:48:00,
2013-05-19 06:53:00,55.8,46.6,29.96,SSE,167,2.0,3.0,71,0.00,,,0.00,18.0,meteohub,2013-05-19 10:53:00,
2013-05-19 06:58:00,55.8,46.9,29.96,South,170,1.0,3.0,72,0.00,,,0.00,21.0,meteohub,2013-05-19 10:58:00,
2013-05-19 07:03:00,55.8,46.9,29.96,South,178,0.0,2.0,72,0.00,,,0.00,26.0,meteohub,2013-05-19 11:03:00,
2013-05-19 07:08:00,55.8,46.9,29.96,South,178,0.0,2.0,72,0.00,,,0.00,33.0,meteohub,2013-05-19 11:08:00,
2013-05-19 07:13:00,55.8,47.3,29.96,South,178,1.0,2.0,73,0.00,,,0.00,39.0,meteohub,2013-05-19 11:13:00,
2013-05-19 07:18:00,55.9,47.5,29.96,South,182,3.0,3.0,73,0.00,,,0.00,42.0,meteohub,2013-05-19 11:18:00,
2013-05-19 07:23:00,55.9,47.5,29.96,South,183,2.0,3.0,73,0.00,,,0.00,42.0,meteohub,2013-05-19 11:23:00,
2013-05-19 07:28:00,55.9,47.5,29.96,South,173,0.0,3.0,73,0.00,,,0.00,49.0,meteohub,2013-05-19 11:28:00,
2013-05-19 07:33:00,56.1,47.7,29.96,South,169,0.0,3.0,73,0.00,,,0.00,56.0,meteohub,2013-05-19 11:33:00,
2013-05-19 07:38:00,56.5,48.4,29.96,SSE,154,2.0,3.0,74,0.00,,,0.00,60.0,meteohub,2013-05-19 11:38:00,
2013-05-19 07:43:00,56.7,48.0,29.96,SSW,195,2.0,3.0,73,0.00,,,0.00,65.0,meteohub,2013-05-19 11:43:00,
2013-05-19 07:48:00,56.8,48.2,29.95,South,178,2.0,4.0,73,0.00,,,0.00,79.0,meteohub,2013-05-19 11:48:00,
2013-05-19 07:53:00,57.2,48.2,29.95,SSW,192,0.0,4.0,72,0.00,,,0.00,90.0,meteohub,2013-05-19 11:53:00,
2013-05-19 07:58:00,57.7,48.4,29.96,SW,215,1.0,4.0,71,0.00,,,0.00,125.0,meteohub,2013-05-19 11:58:00,
2013-05-19 08:03:00,58.5,49.5,29.96,SSW,209,1.0,4.0,72,0.00,,,0.00,174.0,meteohub,2013-05-19 12:03:00,
2013-05-19 08:08:00,59.0,48.9,29.96,SW,216,2.0,4.0,69,0.00,,,0.00,183.0,meteohub,2013-05-19 12:08:00,
2013-05-19 08:13:00,59.7,48.4,29.96,SW,216,0.0,4.0,66,0.00,,,0.00,190.0,meteohub,2013-05-19 12:13:00,
2013-05-19 08:18:00,60.3,48.9,29.96,SW,216,0.0,3.0,66,0.00,,,0.00,271.0,meteohub,2013-05-19 12:18:00,
2013-05-19 08:23:00,61.2,48.9,29.95,South,173,1.0,3.0,64,0.00,,,0.00,230.0,meteohub,2013-05-19 12:23:00,
2013-05-19 08:28:00,61.9,49.1,29.95,WSW,237,2.0,3.0,63,0.00,,,0.00,185.0,meteohub,2013-05-19 12:28:00,
2013-05-19 08:33:00,62.1,49.3,29.95,SSW,207,1.0,6.0,63,0.00,,,0.00,214.0,meteohub,2013-05-19 12:33:00,
2013-05-19 08:38:00,62.4,49.6,29.95,SW,214,2.0,6.0,63,0.00,,,0.00,352.0,meteohub,2013-05-19 12:38:00,
2013-05-19 08:43:00,63.0,49.3,29.95,SSE,165,2.0,6.0,61,0.00,,,0.00,237.0,meteohub,2013-05-19 12:43:00,
2013-05-19 08:48:00,63.3,49.3,29.95,SSW,206,4.0,4.0,60,0.00,,,0.00,123.0,meteohub,2013-05-19 12:48:00,
2013-05-19 08:53:00,63.3,49.6,29.95,SSW,192,0.0,5.0,61,0.00,,,0.00,185.0,meteohub,2013-05-19 12:53:00,
2013-05-19 08:58:00,64.0,51.3,29.94,SSW,192,1.0,5.0,63,0.00,,,0.00,415.0,meteohub,2013-05-19 12:58:00,
2013-05-19 09:03:00,65.5,50.4,29.94,SSW,207,1.0,5.0,58,0.00,,,0.00,445.0,meteohub,2013-05-19 13:03:00,
2013-05-19 09:09:00,66.4,50.7,29.94,SW,225,3.0,3.0,57,0.00,,,0.00,448.0,meteohub,2013-05-19 13:09:00,
2013-05-19 09:14:00,65.5,48.9,29.94,SW,214,3.0,3.0,55,0.00,,,0.00,461.0,meteohub,2013-05-19 13:14:00,
2013-05-19 09:19:00,65.3,49.6,29.94,SW,227,2.0,4.0,57,0.00,,,0.00,473.0,meteohub,2013-05-19 13:19:00,
2013-05-19 09:24:00,66.7,52.0,29.94,SW,229,0.0,5.0,59,0.00,,,0.00,494.0,meteohub,2013-05-19 13:24:00,
2013-05-19 09:29:00,68.0,51.8,29.94,NE,36,3.0,5.0,56,0.00,,,0.00,504.0,meteohub,2013-05-19 13:29:00,
2013-05-19 09:34:00,66.0,51.3,29.94,NNE,17,1.0,5.0,59,0.00,,,0.00,517.0,meteohub,2013-05-19 13:34:00,
2013-05-19 09:39:00,66.9,53.4,29.94,NE,34,0.0,4.0,62,0.00,,,0.00,538.0,meteohub,2013-05-19 13:39:00,
2013-05-19 09:44:00,68.2,50.9,29.94,SSW,200,1.0,4.0,54,0.00,,,0.00,550.0,meteohub,2013-05-19 13:44:00,
2013-05-19 09:49:00,68.5,51.3,29.94,SSW,199,1.0,4.0,54,0.00,,,0.00,577.0,meteohub,2013-05-19 13:49:00,
2013-05-19 09:54:00,68.5,51.3,29.94,SW,230,4.0,5.0,54,0.00,,,0.00,622.0,meteohub,2013-05-19 13:54:00,
2013-05-19 09:59:00,69.4,52.5,29.94,SSW,207,2.0,6.0,55,0.00,,,0.00,689.0,meteohub,2013-05-19 13:59:00,
2013-05-19 10:04:00,71.2,52.2,29.94,South,185,3.0,6.0,51,0.00,,,0.00,696.0,meteohub,2013-05-19 14:04:00,
2013-05-19 10:09:00,72.0,53.4,29.93,SW,221,0.0,6.0,52,0.00,,,0.00,686.0,meteohub,2013-05-19 14:09:00,
2013-05-19 10:14:00,72.0,53.4,29.93,SW,219,2.0,4.0,52,0.00,,,0.00,441.0,meteohub,2013-05-19 14:14:00,
2013-05-19 10:19:00,70.9,52.3,29.93,SW,234,4.0,7.0,52,0.00,,,0.00,605.0,meteohub,2013-05-19 14:19:00,
2013-05-19 10:24:00,70.2,52.2,29.93,SW,223,2.0,7.0,53,0.00,,,0.00,691.0,meteohub,2013-05-19 14:24:00,
2013-05-19 10:29:00,70.9,52.9,29.93,SW,227,2.0,7.0,53,0.00,,,0.00,383.0,meteohub,2013-05-19 14:29:00,
2013-05-19 10:34:00,70.2,52.2,29.93,SSW,202,4.0,7.0,53,0.00,,,0.00,216.0,meteohub,2013-05-19 14:34:00,
2013-05-19 10:39:00,69.3,52.3,29.93,SW,235,3.0,7.0,55,0.00,,,0.00,519.0,meteohub,2013-05-19 14:39:00,
2013-05-19 10:44:00,70.0,54.0,29.93,South,189,2.0,7.0,57,0.00,,,0.00,700.0,meteohub,2013-05-19 14:44:00,
2013-05-19 10:49:00,70.5,53.6,29.93,SW,227,2.0,7.0,55,0.00,,,0.00,698.0,meteohub,2013-05-19 14:49:00,
2013-05-19 10:55:00,73.0,53.8,29.93,SSW,203,5.0,8.0,51,0.00,,,0.00,722.0,meteohub,2013-05-19 14:55:00,
2013-05-19 11:00:00,71.2,53.8,29.93,South,176,4.0,8.0,54,0.00,,,0.00,742.0,meteohub,2013-05-19 15:00:00,
2013-05-19 11:05:00,71.1,53.1,29.92,SSW,194,3.0,8.0,53,0.00,,,0.00,747.0,meteohub,2013-05-19 15:05:00,
2013-05-19 11:10:00,71.4,53.4,29.93,SSW,204,2.0,8.0,53,0.00,,,0.00,749.0,meteohub,2013-05-19 15:10:00,
2013-05-19 11:15:00,73.6,53.8,29.93,WNW,294,1.0,8.0,50,0.00,,,0.00,763.0,meteohub,2013-05-19 15:15:00,
2013-05-19 11:20:00,74.3,54.5,29.93,West,268,2.0,6.0,50,0.00,,,0.00,772.0,meteohub,2013-05-19 15:20:00,
2013-05-19 11:25:00,74.8,54.3,29.93,NE,56,2.0,6.0,49,0.00,,,0.00,780.0,meteohub,2013-05-19 15:25:00,
2013-05-19 11:30:00,73.6,53.8,29.94,NE,45,3.0,6.0,50,0.00,,,0.00,798.0,meteohub,2013-05-19 15:30:00,
2013-05-19 11:35:00,72.3,54.1,29.94,East,98,2.0,5.0,53,0.00,,,0.00,814.0,meteohub,2013-05-19 15:35:00,
2013-05-19 11:40:00,72.0,53.4,29.94,NE,34,3.0,5.0,52,0.00,,,0.00,824.0,meteohub,2013-05-19 15:40:00,
2013-05-19 11:45:00,71.1,52.5,29.94,NW,315,3.0,8.0,52,0.00,,,0.00,835.0,meteohub,2013-05-19 15:45:00,
2013-05-19 11:50:00,69.8,51.4,29.94,NW,311,2.0,8.0,52,0.00,,,0.00,838.0,meteohub,2013-05-19 15:50:00,
2013-05-19 11:55:00,69.4,52.2,29.94,North,355,2.0,5.0,54,0.00,,,0.00,847.0,meteohub,2013-05-19 15:55:00,
2013-05-19 12:00:00,70.2,51.8,29.93,NNW,338,1.0,5.0,52,0.00,,,0.00,860.0,meteohub,2013-05-19 16:00:00,
2013-05-19 12:05:00,70.5,52.5,29.93,NNE,22,6.0,6.0,53,0.00,,,0.00,870.0,meteohub,2013-05-19 16:05:00,
2013-05-19 12:10:00,70.7,51.6,29.93,NNE,28,4.0,8.0,51,0.00,,,0.00,872.0,meteohub,2013-05-19 16:10:00,
2013-05-19 12:15:00,70.9,51.8,29.93,NNW,344,3.0,8.0,51,0.00,,,0.00,886.0,meteohub,2013-05-19 16:15:00,
2013-05-19 12:20:00,71.6,52.5,29.93,NNW,342,1.0,8.0,51,0.00,,,0.00,895.0,meteohub,2013-05-19 16:20:00,
2013-05-19 12:25:00,71.4,51.8,29.93,NW,318,2.0,7.0,50,0.00,,,0.00,863.0,meteohub,2013-05-19 16:25:00,
2013-05-19 12:30:00,71.4,52.3,29.93,NW,316,1.0,6.0,51,0.00,,,0.00,846.0,meteohub,2013-05-19 16:30:00,
2013-05-19 12:35:00,72.3,52.7,29.93,NNE,15,2.0,6.0,50,0.00,,,0.00,865.0,meteohub,2013-05-19 16:35:00,
2013-05-19 12:40:00,72.7,52.9,29.93,NW,321,2.0,4.0,50,0.00,,,0.00,902.0,meteohub,2013-05-19 16:40:00,
2013-05-19 12:46:00,73.8,52.9,29.93,North,355,2.0,4.0,48,0.00,,,0.00,900.0,meteohub,2013-05-19 16:46:00,
2013-05-19 12:51:00,72.5,52.9,29.93,NW,319,1.0,5.0,50,0.00,,,0.00,900.0,meteohub,2013-05-19 16:51:00,
2013-05-19 12:56:00,72.7,52.9,29.93,NNW,346,2.0,5.0,50,0.00,,,0.00,930.0,meteohub,2013-05-19 16:56:00,
2013-05-19 13:01:00,73.0,52.7,29.93,WNW,302,2.0,5.0,49,0.00,,,0.00,858.0,meteohub,2013-05-19 17:01:00,
2013-05-19 13:06:00,73.0,52.7,29.93,NNE,25,3.0,4.0,49,0.00,,,0.00,905.0,meteohub,2013-05-19 17:06:00,
2013-05-19 13:11:00,72.9,52.5,29.92,NW,325,1.0,4.0,49,0.00,,,0.00,888.0,meteohub,2013-05-19 17:11:00,
2013-05-19 13:16:00,73.2,52.9,29.92,ENE,62,1.0,4.0,49,0.00,,,0.00,872.0,meteohub,2013-05-19 17:16:00,
2013-05-19 13:21:00,73.2,53.4,29.92,WNW,290,2.0,4.0,50,0.00,,,0.00,909.0,meteohub,2013-05-19 17:21:00,
2013-05-19 13:26:00,73.6,53.2,29.92,North,355,1.0,5.0,49,0.00,,,0.00,874.0,meteohub,2013-05-19 17:26:00,
2013-05-19 13:31:00,74.1,53.2,29.92,NW,317,1.0,5.0,48,0.00,,,0.00,942.0,meteohub,2013-05-19 17:31:00,
2013-05-19 13:36:00,74.5,54.7,29.92,WNW,303,1.0,5.0,50,0.00,,,0.00,919.0,meteohub,2013-05-19 17:36:00,
2013-05-19 13:41:00,75.0,54.5,29.92,NE,39,3.0,5.0,49,0.00,,,0.00,951.0,meteohub,2013-05-19 17:41:00,
2013-05-19 13:46:00,75.4,54.3,29.91,North,0,1.0,5.0,48,0.00,,,0.00,863.0,meteohub,2013-05-19 17:46:00,
2013-05-19 13:51:00,74.5,54.7,29.91,NNE,17,3.0,5.0,50,0.00,,,0.00,925.0,meteohub,2013-05-19 17:51:00,
2013-05-19 13:56:00,74.1,54.9,29.91,North,0,1.0,5.0,51,0.00,,,0.00,480.0,meteohub,2013-05-19 17:56:00,
2013-05-19 14:01:00,74.7,55.4,29.91,North,355,2.0,4.0,51,0.00,,,0.00,793.0,meteohub,2013-05-19 18:01:00,
2013-05-19 14:06:00,75.0,54.5,29.90,ENE,73,2.0,4.0,49,0.00,,,0.00,868.0,meteohub,2013-05-19 18:06:00,
2013-05-19 14:11:00,76.1,55.6,29.91,West,267,1.0,5.0,49,0.00,,,0.00,478.0,meteohub,2013-05-19 18:11:00,
2013-05-19 14:16:00,75.0,55.0,29.90,East,92,5.0,5.0,50,0.00,,,0.00,967.0,meteohub,2013-05-19 18:16:00,
2013-05-19 14:21:00,75.6,55.6,29.90,North,0,1.0,7.0,50,0.00,,,0.00,1027.0,meteohub,2013-05-19 18:21:00,
2013-05-19 14:26:00,77.2,55.4,29.91,North,355,3.0,7.0,47,0.00,,,0.00,821.0,meteohub,2013-05-19 18:26:00,
2013-05-19 14:31:00,75.9,55.4,29.91,North,0,2.0,7.0,49,0.00,,,0.00,482.0,meteohub,2013-05-19 18:31:00,
2013-05-19 14:36:00,74.8,55.0,29.91,NE,49,2.0,5.0,50,0.00,,,0.00,526.0,meteohub,2013-05-19 18:36:00,
2013-05-19 14:42:00,75.9,55.4,29.90,North,5,1.0,6.0,49,0.00,,,0.00,893.0,meteohub,2013-05-19 18:42:00,
2013-05-19 14:47:00,75.4,55.4,29.90,ENE,60,5.0,7.0,50,0.00,,,0.00,763.0,meteohub,2013-05-19 18:47:00,
2013-05-19 14:52:00,76.6,56.1,29.90,North,5,3.0,8.0,49,0.00,,,0.00,837.0,meteohub,2013-05-19 18:52:00,
2013-05-19 14:57:00,76.8,55.6,29.90,North,0,3.0,8.0,48,0.00,,,0.00,847.0,meteohub,2013-05-19 18:57:00,
2013-05-19 15:02:00,76.3,55.8,29.90,ENE,60,4.0,6.0,49,0.00,,,0.00,860.0,meteohub,2013-05-19 19:02:00,
2013-05-19 15:07:00,76.6,56.7,29.90,East,94,5.0,9.0,50,0.00,,,0.00,835.0,meteohub,2013-05-19 19:07:00,
2013-05-19 15:12:00,75.9,56.5,29.90,ENE,63,1.0,9.0,51,0.00,,,0.00,828.0,meteohub,2013-05-19 19:12:00,
2013-05-19 15:17:00,77.4,56.1,29.89,NE,46,3.0,8.0,48,0.00,,,0.00,779.0,meteohub,2013-05-19 19:17:00,
2013-05-19 15:22:00,77.5,56.8,29.90,ENE,57,7.0,7.0,49,0.00,,,0.00,710.0,meteohub,2013-05-19 19:22:00,
2013-05-19 15:27:00,77.4,56.7,29.89,ENE,78,3.0,7.0,49,0.00,,,0.00,728.0,meteohub,2013-05-19 19:27:00,
2013-05-19 15:32:00,77.7,56.5,29.89,NW,325,1.0,7.0,48,0.00,,,0.00,698.0,meteohub,2013-05-19 19:32:00,
2013-05-19 15:37:00,77.2,55.9,29.89,NNE,13,3.0,7.0,48,0.00,,,0.00,747.0,meteohub,2013-05-19 19:37:00,
2013-05-19 15:42:00,77.2,57.0,29.89,NNE,17,4.0,8.0,50,0.00,,,0.00,729.0,meteohub,2013-05-19 19:42:00,
2013-05-19 15:47:00,76.8,56.8,29.89,ESE,114,4.0,8.0,50,0.00,,,0.00,696.0,meteohub,2013-05-19 19:47:00,
2013-05-19 15:52:00,77.0,57.6,29.88,NNE,33,1.0,8.0,51,0.00,,,0.00,708.0,meteohub,2013-05-19 19:52:00,
2013-05-19 15:57:00,76.5,57.0,29.87,NNE,16,5.0,9.0,51,0.00,,,0.00,689.0,meteohub,2013-05-19 19:57:00,
2013-05-19 16:02:00,76.3,56.8,29.87,North,5,1.0,9.0,51,0.00,,,0.00,707.0,meteohub,2013-05-19 20:02:00,
2013-05-19 16:07:00,76.3,56.8,29.87,East,85,6.0,11.0,51,0.00,,,0.00,701.0,meteohub,2013-05-19 20:07:00,
2013-05-19 16:12:00,76.1,57.7,29.86,NE,46,1.0,11.0,53,0.00,,,0.00,726.0,meteohub,2013-05-19 20:12:00,
2013-05-19 16:17:00,76.6,57.2,29.86,NE,51,3.0,8.0,51,0.00,,,0.00,712.0,meteohub,2013-05-19 20:17:00,
2013-05-19 16:22:00,76.5,57.0,29.86,NNE,27,1.0,8.0,51,0.00,,,0.00,721.0,meteohub,2013-05-19 20:22:00,
2013-05-19 16:27:00,76.5,57.0,29.86,ENE,76,3.0,7.0,51,0.00,,,0.00,698.0,meteohub,2013-05-19 20:27:00,
2013-05-19 16:33:00,76.8,57.4,29.86,East,85,3.0,7.0,51,0.00,,,0.00,687.0,meteohub,2013-05-19 20:33:00,
2013-05-19 16:38:00,76.1,57.2,29.85,ENE,72,3.0,9.0,52,0.00,,,0.00,671.0,meteohub,2013-05-19 20:38:00,
2013-05-19 16:43:00,76.6,57.2,29.85,ENE,63,2.0,9.0,51,0.00,,,0.00,649.0,meteohub,2013-05-19 20:43:00,
2013-05-19 16:48:00,76.8,58.5,29.85,East,84,5.0,9.0,53,0.00,,,0.00,638.0,meteohub,2013-05-19 20:48:00,
2013-05-19 16:53:00,76.5,57.6,29.84,NNE,20,3.0,7.0,52,0.00,,,0.00,612.0,meteohub,2013-05-19 20:53:00,
2013-05-19 16:58:00,76.6,57.7,29.84,NE,38,3.0,7.0,52,0.00,,,0.00,524.0,meteohub,2013-05-19 20:58:00,
2013-05-19 17:03:00,76.8,58.5,29.84,East,90,3.0,7.0,53,0.00,,,0.00,338.0,meteohub,2013-05-19 21:03:00,
2013-05-19 17:08:00,77.4,58.3,29.84,NE,35,7.0,9.0,52,0.00,,,0.00,288.0,meteohub,2013-05-19 21:08:00,
2013-05-19 17:13:00,77.4,57.2,29.84,ENE,74,4.0,9.0,50,0.00,,,0.00,383.0,meteohub,2013-05-19 21:13:00,
2013-05-19 17:18:00,77.5,57.9,29.83,ENE,76,3.0,9.0,51,0.00,,,0.00,374.0,meteohub,2013-05-19 21:18:00,
2013-05-19 17:23:00,77.5,57.4,29.84,East,79,13.0,13.0,50,0.00,,,0.00,244.0,meteohub,2013-05-19 21:23:00,
2013-05-19 17:28:00,77.0,56.3,29.84,East,90,2.0,9.0,49,0.00,,,0.00,236.0,meteohub,2013-05-19 21:28:00,
2013-05-19 17:33:00,76.6,56.7,29.84,ENE,74,5.0,13.0,50,0.00,,,0.00,329.0,meteohub,2013-05-19 21:33:00,
2013-05-19 17:38:00,76.1,56.7,29.83,ESE,117,1.0,13.0,51,0.00,,,0.00,148.0,meteohub,2013-05-19 21:38:00,
2013-05-19 17:43:00,75.9,56.5,29.83,East,83,3.0,13.0,51,0.00,,,0.00,120.0,meteohub,2013-05-19 21:43:00,
2013-05-19 17:48:00,75.6,56.1,29.84,ENE,73,7.0,13.0,51,0.00,,,0.00,111.0,meteohub,2013-05-19 21:48:00,
2013-05-19 17:53:00,75.0,56.1,29.83,ENE,68,5.0,13.0,52,0.00,,,0.00,104.0,meteohub,2013-05-19 21:53:00,
2013-05-19 17:59:00,75.0,56.7,29.83,NE,44,4.0,11.0,53,0.00,,,0.00,104.0,meteohub,2013-05-19 21:59:00,
2013-05-19 18:04:00,75.0,57.2,29.83,ENE,71,5.0,11.0,54,0.00,,,0.00,107.0,meteohub,2013-05-19 22:04:00,
2013-05-19 18:09:00,74.8,57.0,29.83,ENE,69,8.0,10.0,54,0.00,,,0.00,111.0,meteohub,2013-05-19 22:09:00,
2013-05-19 18:14:00,74.7,56.5,29.83,NE,44,3.0,10.0,53,0.00,,,0.00,123.0,meteohub,2013-05-19 22:14:00,
2013-05-19 18:19:00,74.5,56.7,29.82,ENE,74,7.0,11.0,54,0.00,,,0.00,120.0,meteohub,2013-05-19 22:19:00,
2013-05-19 18:24:00,73.9,56.8,29.81,NE,34,4.0,11.0,55,0.00,,,0.00,141.0,meteohub,2013-05-19 22:24:00,
2013-05-19 18:29:00,73.8,56.7,29.82,East,80,7.0,12.0,55,0.00,,,0.00,127.0,meteohub,2013-05-19 22:29:00,
2013-05-19 18:34:00,73.6,56.8,29.82,NE,55,4.0,12.0,56,0.00,,,0.00,120.0,meteohub,2013-05-19 22:34:00,
2013-05-19 18:39:00,73.6,56.8,29.82,NE,41,3.0,14.0,56,0.00,,,0.00,105.0,meteohub,2013-05-19 22:39:00,
2013-05-19 18:44:00,73.6,56.8,29.82,East,84,6.0,14.0,56,0.00,,,0.00,104.0,meteohub,2013-05-19 22:44:00,
2013-05-19 18:49:00,73.6,56.8,29.83,ENE,63,3.0,11.0,56,0.00,,,0.00,97.0,meteohub,2013-05-19 22:49:00,
2013-05-19 18:54:00,73.4,56.7,29.83,ENE,69,2.0,11.0,56,0.00,,,0.00,88.0,meteohub,2013-05-19 22:54:00,
2013-05-19 18:59:00,73.4,57.2,29.83,ESE,113,2.0,11.0,57,0.00,,,0.00,77.0,meteohub,2013-05-19 22:59:00,
2013-05-19 19:04:00,73.4,56.7,29.84,NE,43,4.0,11.0,56,0.00,,,0.00,67.0,meteohub,2013-05-19 23:04:00,
2013-05-19 19:09:00,73.2,56.7,29.84,ENE,66,4.0,7.0,56,0.00,,,0.00,58.0,meteohub,2013-05-19 23:09:00,
2013-05-19 19:14:00,72.9,56.3,29.84,ENE,58,4.0,8.0,56,0.00,,,0.00,53.0,meteohub,2013-05-19 23:14:00,
2013-05-19 19:19:00,72.7,56.5,29.84,NE,49,4.0,9.0,57,0.00,,,0.00,49.0,meteohub,2013-05-19 23:19:00,
2013-05-19 19:24:00,72.7,57.0,29.84,NE,52,4.0,9.0,58,0.00,,,0.00,46.0,meteohub,2013-05-19 23:24:00,
2013-05-19 19:29:00,72.3,57.2,29.84,ENE,57,2.0,8.0,59,0.00,,,0.00,44.0,meteohub,2013-05-19 23:29:00,
2013-05-19 19:35:00,72.3,56.7,29.84,ENE,75,3.0,8.0,58,0.00,,,0.00,40.0,meteohub,2013-05-19 23:35:00,
2013-05-19 19:40:00,72.1,56.5,29.84,ENE,76,4.0,8.0,58,0.00,,,0.00,39.0,meteohub,2013-05-19 23:40:00,
2013-05-19 19:45:00,72.0,56.3,29.84,East,80,3.0,8.0,58,0.00,,,0.00,35.0,meteohub,2013-05-19 23:45:00,
2013-05-19 19:50:00,71.8,56.1,29.84,NE,53,5.0,9.0,58,0.00,,,0.00,32.0,meteohub,2013-05-19 23:50:00,
2013-05-19 19:55:00,71.4,56.3,29.84,NE,40,3.0,9.0,59,0.00,,,0.00,28.0,meteohub,2013-05-19 23:55:00,
2013-05-19 20:00:00,71.2,56.7,29.84,ENE,64,2.0,8.0,60,0.00,,,0.00,26.0,meteohub,2013-05-20 00:00:00,
2013-05-19 20:05:00,71.1,56.5,29.84,East,80,7.0,8.0,60,0.00,,,0.00,26.0,meteohub,2013-05-20 00:05:00,
2013-05-19 20:10:00,70.7,56.1,29.84,East,83,3.0,8.0,60,0.00,,,0.00,21.0,meteohub,2013-05-20 00:10:00,
2013-05-19 20:15:00,70.3,56.3,29.85,East,82,5.0,10.0,61,0.00,,,0.00,19.0,meteohub,2013-05-20 00:15:00,
2013-05-19 20:20:00,70.2,56.5,29.84,ENE,70,3.0,13.0,62,0.00,,,0.00,19.0,meteohub,2013-05-20 00:20:00,
2013-05-19 20:25:00,69.8,56.1,29.84,ENE,76,3.0,13.0,62,0.00,,,0.00,18.0,meteohub,2013-05-20 00:25:00,
2013-05-19 20:30:00,69.4,55.9,29.84,East,84,6.0,10.0,62,0.00,,,0.00,18.0,meteohub,2013-05-20 00:30:00,
2013-05-19 20:35:00,69.3,56.1,29.84,ENE,63,3.0,10.0,63,0.00,,,0.00,16.0,meteohub,2013-05-20 00:35:00,
2013-05-19 20:40:00,69.1,56.5,29.84,ENE,61,3.0,11.0,64,0.00,,,0.00,14.0,meteohub,2013-05-20 00:40:00,
2013-05-19 20:45:00,68.7,56.5,29.84,NE,52,2.0,11.0,65,0.00,,,0.00,12.0,meteohub,2013-05-20 00:45:00,
2013-05-19 20:50:00,68.5,56.3,29.85,ENE,71,3.0,10.0,65,0.00,,,0.00,11.0,meteohub,2013-05-20 00:50:00,
2013-05-19 20:55:00,68.5,56.7,29.85,East,92,5.0,9.0,66,0.00,,,0.00,7.0,meteohub,2013-05-20 00:55:00,
2013-05-19 21:00:00,68.4,56.5,29.85,ENE,62,5.0,10.0,66,0.00,,,0.00,0.0,meteohub,2013-05-20 01:00:00,
2013-05-19 21:05:00,68.4,56.5,29.85,ENE,65,3.0,10.0,66,0.00,,,0.00,0.0,meteohub,2013-05-20 01:05:00,
2013-05-19 21:10:00,68.2,56.8,29.85,ENE,62,5.0,8.0,67,0.00,,,0.00,0.0,meteohub,2013-05-20 01:10:00,
2013-05-19 21:15:00,68.0,57.0,29.85,NE,44,6.0,8.0,68,0.00,,,0.00,0.0,meteohub,2013-05-20 01:15:00,
2013-05-19 21:20:00,67.8,56.8,29.85,East,96,7.0,9.0,68,0.00,,,0.00,0.0,meteohub,2013-05-20 01:20:00,
2013-05-19 21:25:00,67.6,56.7,29.85,East,94,8.0,9.0,68,0.00,,,0.00,0.0,meteohub,2013-05-20 01:25:00,
2013-05-19 21:31:00,67.6,56.7,29.85,ENE,69,4.0,9.0,68,0.00,,,0.00,0.0,meteohub,2013-05-20 01:31:00,
2013-05-19 21:36:00,67.5,56.5,29.85,East,84,5.0,8.0,68,0.00,,,0.00,0.0,meteohub,2013-05-20 01:36:00,
2013-05-19 21:41:00,67.5,57.0,29.85,ENE,74,4.0,8.0,69,0.00,,,0.00,0.0,meteohub,2013-05-20 01:41:00,
2013-05-19 21:46:00,67.3,56.8,29.85,ENE,61,5.0,7.0,69,0.00,,,0.00,0.0,meteohub,2013-05-20 01:46:00,
2013-05-19 21:51:00,66.9,56.5,29.85,ENE,75,1.0,8.0,69,0.00,,,0.00,0.0,meteohub,2013-05-20 01:51:00,
2013-05-19 21:56:00,66.7,56.3,29.85,ENE,62,4.0,8.0,69,0.00,,,0.00,0.0,meteohub,2013-05-20 01:56:00,
2013-05-19 22:01:00,66.2,54.9,29.85,NNE,23,1.0,9.0,67,0.00,,,0.00,0.0,meteohub,2013-05-20 02:01:00,
2013-05-19 22:06:00,64.9,54.1,29.86,NNE,32,3.0,9.0,68,0.00,,,0.00,0.0,meteohub,2013-05-20 02:06:00,
2013-05-19 22:11:00,64.0,54.1,29.85,NE,50,4.0,9.0,70,0.00,,,0.00,0.0,meteohub,2013-05-20 02:11:00,
2013-05-19 22:16:00,63.1,54.0,29.85,NE,40,4.0,7.0,72,0.00,,,0.00,0.0,meteohub,2013-05-20 02:16:00,
2013-05-19 22:21:00,63.0,53.8,29.85,ENE,65,3.0,7.0,72,0.00,,,0.00,0.0,meteohub,2013-05-20 02:21:00,
2013-05-19 22:26:00,63.0,54.5,29.85,ENE,65,2.0,8.0,74,0.00,,,0.00,0.0,meteohub,2013-05-20 02:26:00,
2013-05-19 22:31:00,63.0,54.5,29.85,ENE,69,2.0,8.0,74,0.00,,,0.00,0.0,meteohub,2013-05-20 02:31:00,
2013-05-19 22:36:00,63.3,54.5,29.85,ENE,63,2.0,8.0,73,0.00,,,0.00,0.0,meteohub,2013-05-20 02:36:00,
2013-05-19 22:41:00,63.3,54.1,29.85,East,90,6.0,6.0,72,0.00,,,0.00,0.0,meteohub,2013-05-20 02:41:00,
2013-05-19 22:46:00,63.3,53.8,29.86,East,83,2.0,7.0,71,0.00,,,0.00,0.0,meteohub,2013-05-20 02:46:00,
2013-05-19 22:51:00,63.0,52.7,29.86,NNE,26,2.0,7.0,69,0.00,,,0.00,0.0,meteohub,2013-05-20 02:51:00,
2013-05-19 22:56:00,62.4,52.9,29.86,NE,40,2.0,7.0,71,0.00,,,0.00,0.0,meteohub,2013-05-20 02:56:00,
2013-05-19 23:01:00,62.4,52.9,29.86,ENE,71,7.0,7.0,71,0.00,,,0.00,0.0,meteohub,2013-05-20 03:01:00,
2013-05-19 23:06:00,63.1,53.2,29.86,ENE,78,2.0,8.0,70,0.00,,,0.00,0.0,meteohub,2013-05-20 03:06:00,
2013-05-19 23:11:00,63.7,53.2,29.86,East,79,1.0,8.0,69,0.00,,,0.00,0.0,meteohub,2013-05-20 03:11:00,
2013-05-19 23:16:00,63.7,52.9,29.86,NE,52,5.0,8.0,68,0.00,,,0.00,0.0,meteohub,2013-05-20 03:16:00,
2013-05-19 23:21:00,63.7,52.9,29.86,SE,137,3.0,7.0,68,0.00,,,0.00,0.0,meteohub,2013-05-20 03:21:00,
2013-05-19 23:26:00,63.7,52.2,29.86,ENE,69,3.0,7.0,66,0.00,,,0.00,0.0,meteohub,2013-05-20 03:26:00,
2013-05-19 23:31:00,63.5,52.0,29.86,ENE,57,5.0,7.0,66,0.00,,,0.00,0.0,meteohub,2013-05-20 03:31:00,
2013-05-19 23:36:00,63.3,51.8,29.86,ENE,71,2.0,7.0,66,0.00,,,0.00,0.0,meteohub,2013-05-20 03:36:00,
2013-05-19 23:41:00,63.3,51.8,29.86,ENE,61,0.0,7.0,66,0.00,,,0.00,0.0,meteohub,2013-05-20 03:41:00,
2013-05-19 23:46:00,63.3,51.8,29.86,NE,49,0.0,7.0,66,0.00,,,0.00,0.0,meteohub,2013-05-20 03:46:00,
2013-05-19 23:51:00,63.1,51.6,29.86,East,94,1.0,5.0,66,0.00,,,0.00,0.0,meteohub,2013-05-20 03:51:00,
2013-05-19 23:56:00,63.1,51.3,29.86,NE,50,2.0,5.0,65,0.00,,,0.00,0.0,meteohub,2013-05-20 03:56:00,